• In Österreich
  • Länderverzeichnis
  • Für 7 Tage
  • Wassertemperatur
  • Satellitenkarten
  • Wetterkarte
  • News
  • Widgets
  • user-avatar
    Anmelden

    Stündliche Wetter Pozhnya

    Heute, 23 Juli, Montag

    Zeit Temperatur Niederschläge Wind Luftdruck Luftfeuchtigkeit
    00:00 +19°C° 0 mm 2 m/S 742 mmHg 98%
    01:00 +19°C° 0 mm 1 m/S 742 mmHg 98%
    02:00 +19°C° 0 mm 1 m/S 742 mmHg 98%
    03:00 +19°C° 0 mm 1 m/S 742 mmHg 98%
    04:00 +18°C° 0 mm 2 m/S 742 mmHg 98%
    05:00 +18°C° 0 mm 2 m/S 742 mmHg 98%
    06:00 +19°C° 0 mm 2 m/S 742 mmHg 93%
    07:00 +21°C° 0 mm 2 m/S 742 mmHg 88%
    08:00 +23°C° 0 mm 2 m/S 743 mmHg 83%
    09:00 +24°C° 0,1 mm 3 m/S 743 mmHg 79%
    10:00 +24°C° 0,1 mm 3 m/S 743 mmHg 76%
    11:00 +25°C° 0,1 mm 3 m/S 743 mmHg 72%
    12:00 +25°C° 0,4 mm 3 m/S 742 mmHg 71%
    13:00 +26°C° 0,4 mm 3 m/S 742 mmHg 70%
    14:00 +26°C° 0,4 mm 3 m/S 742 mmHg 69%
    15:00 +26°C° 0,1 mm 3 m/S 742 mmHg 69%
    16:00 +25°C° 0,1 mm 3 m/S 742 mmHg 69%
    17:00 +25°C° 0,1 mm 3 m/S 742 mmHg 69%
    18:00 +24°C° 0 mm 2 m/S 743 mmHg 75%
    19:00 +21°C° 0 mm 2 m/S 743 mmHg 82%
    20:00 +20°C° 0 mm 2 m/S 743 mmHg 88%
    21:00 +19°C° 0 mm 2 m/S 743 mmHg 91%
    22:00 +18°C° 0 mm 2 m/S 743 mmHg 94%
    23:00 +17°C° 0 mm 2 m/S 744 mmHg 97%

    Morgen, 24 Juli, Dienstag

    Zeit Temperatur Niederschläge Wind Luftdruck Luftfeuchtigkeit
    00:00 +17°C° 0 mm 2 m/S 744 mmHg 97%
    01:00 +18°C° 0 mm 1 m/S 744 mmHg 98%
    02:00 +16°C° 0 mm 1 m/S 744 mmHg 98%
    03:00 +16°C° 0 mm 2 m/S 744 mmHg 97%
    04:00 +16°C° 0 mm 2 m/S 744 mmHg 97%
    05:00 +16°C° 0 mm 2 m/S 744 mmHg 96%
    06:00 +18°C° 0 mm 2 m/S 744 mmHg 90%
    07:00 +19°C° 0 mm 2 m/S 744 mmHg 84%
    08:00 +21°C° 0 mm 3 m/S 744 mmHg 78%
    09:00 +22°C° 0 mm 3 m/S 744 mmHg 75%
    10:00 +22°C° 0 mm 3 m/S 744 mmHg 72%
    11:00 +24°C° 0 mm 3 m/S 744 mmHg 68%
    12:00 +25°C° 0,1 mm 3 m/S 744 mmHg 68%
    13:00 +25°C° 0,1 mm 3 m/S 744 mmHg 69%
    14:00 +25°C° 0,1 mm 3 m/S 744 mmHg 69%
    15:00 +25°C° 0,3 mm 3 m/S 744 mmHg 72%
    16:00 +25°C° 0,3 mm 3 m/S 744 mmHg 74%
    17:00 +25°C° 0,3 mm 3 m/S 744 mmHg 77%
    18:00 +22°C° 0,2 mm 3 m/S 744 mmHg 82%
    19:00 +21°C° 0,2 mm 2 m/S 744 mmHg 87%
    20:00 +20°C° 0,2 mm 2 m/S 745 mmHg 92%
    21:00 +19°C° 0 mm 2 m/S 745 mmHg 94%
    22:00 +19°C° 0 mm 2 m/S 745 mmHg 96%
    23:00 +18°C° 0 mm 2 m/S 745 mmHg 98%

    übermorgen, 25 Juli, Mittwoch

    Zeit Temperatur Niederschläge Wind Luftdruck Luftfeuchtigkeit
    00:00 +18°C° 0 mm 2 m/S 745 mmHg 98%
    01:00 +17°C° 0 mm 2 m/S 745 mmHg 98%
    02:00 +17°C° 0 mm 2 m/S 745 mmHg 98%
    03:00 +17°C° 0 mm 2 m/S 745 mmHg 98%
    04:00 +18°C° 0 mm 2 m/S 745 mmHg 98%
    05:00 +18°C° 0 mm 2 m/S 745 mmHg 98%
    06:00 +19°C° 0 mm 2 m/S 745 mmHg 94%
    07:00 +20°C° 0 mm 2 m/S 745 mmHg 91%
    08:00 +21°C° 0 mm 2 m/S 745 mmHg 88%
    09:00 +22°C° 0,4 mm 3 m/S 746 mmHg 85%
    10:00 +25°C° 0,4 mm 3 m/S 746 mmHg 81%
    11:00 +26°C° 0,4 mm 3 m/S 746 mmHg 77%
    12:00 +26°C° 1 mm 3 m/S 746 mmHg 78%
    13:00 +26°C° 1 mm 4 m/S 746 mmHg 78%
    14:00 +26°C° 1 mm 4 m/S 746 mmHg 78%
    15:00 +25°C° 0,1 mm 4 m/S 746 mmHg 74%
    16:00 +23°C° 0,1 mm 4 m/S 746 mmHg 69%
    17:00 +23°C° 0,1 mm 4 m/S 746 mmHg 64%
    18:00 +21°C° 0 mm 3 m/S 746 mmHg 69%
    19:00 +20°C° 0 mm 3 m/S 746 mmHg 74%
    20:00 +18°C° 0 mm 2 m/S 746 mmHg 78%
    21:00 +18°C° 0,1 mm 2 m/S 746 mmHg 81%
    22:00 +18°C° 0,1 mm 2 m/S 746 mmHg 84%
    23:00 +18°C° 0,1 mm 3 m/S 746 mmHg 87%

    26 Juli, Donnerstag

    Zeit Temperatur Niederschläge Wind Luftdruck Luftfeuchtigkeit
    00:00 +18°C° 0 mm 3 m/S 746 mmHg 90%
    01:00 +18°C° 0 mm 3 m/S 746 mmHg 92%
    02:00 +18°C° 0 mm 3 m/S 746 mmHg 95%
    03:00 +18°C° 0,1 mm 3 m/S 746 mmHg 94%
    04:00 +18°C° 0,1 mm 3 m/S 746 mmHg 94%
    05:00 +18°C° 0,1 mm 3 m/S 746 mmHg 93%
    06:00 +18°C° 0,3 mm 3 m/S 746 mmHg 92%
    07:00 +18°C° 0,3 mm 3 m/S 746 mmHg 91%
    08:00 +19°C° 0,3 mm 3 m/S 746 mmHg 90%
    09:00 +19°C° 0,2 mm 3 m/S 746 mmHg 90%
    10:00 +20°C° 0,2 mm 3 m/S 746 mmHg 90%
    11:00 +21°C° 0,2 mm 3 m/S 746 mmHg 89%
    12:00 +21°C° 0,5 mm 3 m/S 746 mmHg 89%
    13:00 +22°C° 0,5 mm 3 m/S 746 mmHg 89%
    14:00 +22°C° 0,5 mm 3 m/S 746 mmHg 89%
    15:00 +22°C° 0,3 mm 3 m/S 746 mmHg 89%
    16:00 +24°C° 0,3 mm 3 m/S 746 mmHg 88%
    17:00 +24°C° 0,3 mm 2 m/S 746 mmHg 87%
    18:00 +23°C° 0,5 mm 2 m/S 747 mmHg 90%
    19:00 +21°C° 0,5 mm 2 m/S 747 mmHg 92%
    20:00 +21°C° 0,5 mm 2 m/S 747 mmHg 94%
    21:00 +21°C° 0,9 mm 2 m/S 747 mmHg 95%
    22:00 +20°C° 0,9 mm 2 m/S 747 mmHg 96%
    23:00 +20°C° 0,9 mm 2 m/S 747 mmHg 96%

    27 Juli, Freitag

    Zeit Temperatur Niederschläge Wind Luftdruck Luftfeuchtigkeit
    00:00 +20°C° 0,1 mm 2 m/S 747 mmHg 97%
    01:00 +20°C° 0,1 mm 2 m/S 747 mmHg 97%
    02:00 +20°C° 0,1 mm 2 m/S 747 mmHg 97%
    03:00 +20°C° 0 mm 2 m/S 747 mmHg 97%
    04:00 +20°C° 0 mm 2 m/S 748 mmHg 98%
    05:00 +20°C° 0 mm 2 m/S 748 mmHg 98%
    06:00 +21°C° 0 mm 2 m/S 748 mmHg 95%
    07:00 +23°C° 0 mm 2 m/S 748 mmHg 93%
    08:00 +24°C° 0 mm 3 m/S 748 mmHg 91%
    09:00 +26°C° 0,2 mm 3 m/S 748 mmHg 83%
    10:00 +27°C° 0,2 mm 3 m/S 748 mmHg 75%
    11:00 +29°C° 0,2 mm 3 m/S 748 mmHg 67%
    12:00 +30°C° 0,1 mm 3 m/S 748 mmHg 62%
    13:00 +31°C° 0,1 mm 3 m/S 748 mmHg 57%
    14:00 +33°C° 0,1 mm 4 m/S 748 mmHg 52%
    15:00 +31°C° 0,1 mm 3 m/S 748 mmHg 55%
    16:00 +31°C° 0,1 mm 3 m/S 748 mmHg 57%
    17:00 +30°C° 0,1 mm 3 m/S 748 mmHg 60%
    18:00 +28°C° 0,7 mm 3 m/S 749 mmHg 70%
    19:00 +26°C° 0,7 mm 3 m/S 749 mmHg 80%
    20:00 +23°C° 0,7 mm 2 m/S 749 mmHg 89%
    21:00 +23°C° 0,2 mm 2 m/S 749 mmHg 90%
    22:00 +23°C° 0,2 mm 2 m/S 749 mmHg 91%
    23:00 +23°C° 0,2 mm 2 m/S 750 mmHg 91%

    28 Juli, Samstag

    Zeit Temperatur Niederschläge Wind Luftdruck Luftfeuchtigkeit
    00:00 +21°C° 0,5 mm 2 m/S 750 mmHg 93%
    01:00 +21°C° 0,5 mm 2 m/S 750 mmHg 94%
    02:00 +21°C° 0,5 mm 2 m/S 750 mmHg 95%
    03:00 +21°C° 1 mm 2 m/S 750 mmHg 95%
    04:00 +20°C° 1 mm 2 m/S 750 mmHg 96%
    05:00 +20°C° 1 mm 2 m/S 751 mmHg 96%
    06:00 +23°C° 0 mm 2 m/S 751 mmHg 91%
    07:00 +24°C° 0 mm 2 m/S 751 mmHg 86%
    08:00 +25°C° 0 mm 3 m/S 751 mmHg 82%
    09:00 +27°C° 0 mm 3 m/S 751 mmHg 71%
    10:00 +29°C° 0 mm 3 m/S 751 mmHg 60%
    11:00 +30°C° 0 mm 4 m/S 751 mmHg 49%
    12:00 +30°C° 0 mm 4 m/S 751 mmHg 48%
    13:00 +32°C° 0 mm 4 m/S 751 mmHg 46%
    14:00 +32°C° 0 mm 4 m/S 751 mmHg 44%
    15:00 +31°C° 0 mm 3 m/S 751 mmHg 48%
    16:00 +30°C° 0 mm 3 m/S 751 mmHg 52%
    17:00 +30°C° 0 mm 2 m/S 751 mmHg 56%
    18:00 +28°C° 0 mm 2 m/S 751 mmHg 63%
    19:00 +26°C° 0 mm 2 m/S 751 mmHg 70%
    20:00 +24°C° 0 mm 2 m/S 751 mmHg 77%
    21:00 +23°C° 0 mm 2 m/S 751 mmHg 80%
    22:00 +23°C° 0 mm 2 m/S 752 mmHg 82%
    23:00 +21°C° 0 mm 2 m/S 752 mmHg 84%
    Mehr zeigen